Home > Time Zones > World Clock > Weather > Cuba > Havana > Past weeks

Flag for Cuba Weather past 2 weeks in Havana, Cuba

Now
79 °F

Passing clouds.


Feels Like: 81 °F
Forecast: 78 / 88 °F
Wind: 2 mph from Southeast

Location: Aeropuerto Jose Marti - Rancho-Boyeros - Habana

Current Time: Sep 2, 2014 at 8:19:31 PM

Latest Report: Sep 2, 2014 at 7:55 PM


Visibility: 6 mi

Pressure: 29.98 "Hg

Humidity: 65%

Dew point: 66 °F

Location of HavanaLocation

Historic Weather in Havana — Graph

°F

Havana temperature yesterday

Maximum temperature yesterday: 91 °F (at 2:55 PM)
Minimum temperature yesterday: 73 °F (at 12:55 AM)
Average temperature yesterday: 80 °F

Past Weeks' High & Low Weather Summary

 TemperatureHumidityPressure
High93 °F (Aug 20, 2:55 PM)94% (Aug 20, 3:55 AM)30.09 "Hg (Aug 20, 3:55 AM)
Low70 °F (Aug 22, 5:55 AM)46% (Aug 19, 2:55 PM)29.74 "Hg (Aug 25, 4:55 PM)
Average81 °F74%29.97 "Hg
* Reported Aug 18 6:55 PM — Sep 2 6:55 PM, Havana, Weather by CustomWeather, © 2014

Note: Actual official high and low records may vary slightly from our data, if they occured in-between our weather recording intervals... More about our weather records

Advertising

Havana weather history for previous 24 hours

 ConditionsComfort  
Time TempWeatherWind HumidityBarometerVisibility
6:55 PM
Sep 2
82 °FScattered clouds.7 mph62%29.98 "Hg6 mi
5:55 PM82 °FScattered clouds.5 mph66%29.95 "Hg6 mi
4:55 PM88 °FBroken clouds.9 mph59%29.98 "Hg6 mi
3:55 PM81 °FBroken clouds.7 mph74%29.98 "Hg6 mi
2:55 PM81 °FThunderstorms. Partly sunny.12 mph74%30.01 "Hg4 mi
1:55 PM90 °FScattered clouds.8 mph49%30.01 "HgN/A
12:55 PM88 °FScattered clouds.7 mph55%30.04 "HgN/A
11:55 AM88 °FScattered clouds.8 mph55%30.04 "HgN/A
10:55 AM84 °FScattered clouds.10 mph66%30.04 "Hg6 mi
9:55 AM84 °FScattered clouds.9 mph70%30.04 "Hg6 mi
8:55 AM81 °FPassing clouds.6 mph79%30.04 "Hg5 mi
7:55 AM73 °FPassing clouds.2 mph94%30.04 "Hg5 mi
6:55 AM73 °FPassing clouds.5 mph89%30.01 "Hg6 mi
5:55 AM73 °FClear.3 mph89%30.01 "Hg6 mi
4:55 AM73 °FClear.2 mph94%30.01 "Hg6 mi
3:55 AM73 °FClear.1 mph94%30.01 "Hg6 mi
2:55 AM75 °FClear.3 mph89%30.04 "Hg6 mi
1:55 AM75 °FClear.2 mph89%30.04 "Hg6 mi
12:55 AM75 °FClear.2 mph89%30.04 "Hg6 mi
11:55 PM
Sep 1
75 °FPassing clouds.6 mph89%30.07 "Hg6 mi
10:55 PM77 °FPassing clouds.6 mph83%30.04 "Hg6 mi
9:55 PM77 °FPassing clouds.6 mph83%30.04 "Hg6 mi
8:55 PM79 °FPassing clouds.No wind79%30.04 "Hg6 mi
Weather by CustomWeather, © 2014

See weather overviewHow to use our weather pages